Погода в Хернинге

Дания     56°08′17″N   8°58′07″E
темп.,
°C
ветер,
м/с
пор.,
м/с
влажн.,
%
обл.,
%
осадки,
мм/ч
давл.,
гПа
погр.,
м
12 августа, пт
пт1223:00+17ссв22793 0.0 102419
02:00+16всв22843 0.0 102411
05:00+15юв22850 0.0 102311
08:00+19зюз11680 0.0 1023112
11:00+25ююв12450 0.0 1023663
14:00+28ю23340 0.0 10211491
17:00+29ююз233110 0.0 10201962
20:00+23с455552 0.0 1021180
13 августа, сб
сб1323:00+18св33696 0.0 102130
02:00+17ююв22656 0.0 102119
05:00+16ю226337 0.0 102012
08:00+19ююв11534 0.0 102089
11:00+26юв223535 0.0 1020659
14:00+30ююз222977 0.0 10191634
17:00+30з332768 0.0 10182272
20:00+24сз354720 0.0 1018119
14 августа, вс
вс1423:00+18ссв226651 0.0 101811
02:00+18всв116730 0.0 101711
05:00+17юв116562 0.0 101611
08:00+21юв225360 0.0 101697
11:00+27юв34380 0.0 1015867
14:00+30юв443038 0.0 10142476
17:00+30юв443050 0.0 10122402
20:00+25юв2546100 0.0 1012218
15 августа, пн
пн1523:00+21юв3855100 0.0 1012163
02:00+19юв3969100 0.0 1011206
05:00+18вюв41070100 0.0 1010227
08:00+20в4965100 0.0 1009314
11:00+24в6862100 0.6 1008627
14:00+27вюв574868 0.6 10071223
17:00+29в56415 0.0 10051584
20:00+24в696471 0.0 1004483
16 августа, вт
вт1623:00+20юв3787100 1.8 1004163
02:00+18ююв379545 2.5 1004203
05:00+18ююв239656 0.1 100369
08:00+19ю2388100 0.1 1004165
11:00+24юз336598 0.0 1004714
14:00+27зюз554718 0.0 10041642
17:00+26з665345 0.3 10051168
20:00+22зсз34695 0.3 1006380